Temp
-25 -26 -28 -27 -26 -26 -25 -23 -22 -21 -21 -21 -21 -20 -20 -20 -19 -18 -18 -17 -18 -17 -17 -17 -16 -17 -16 -17 -17 -17 -17 -18 -18 -19 -19 -20 -20 -20 -21 -21 -21 -21 -22 -21
-25 -26 -28 -27 -26 -26 -24 -23 -22 -21 -21 -20 -19 -20 -21 -20 -20 -19 -18 -18 -18 -17 -17 -17 -17 -17 -17 -17 -17 -17 -18 -17 -18 -18 -19 -19 -20 -20 -20 -21 -21 -21 -21 -19
-24 -25 -27 -26 -26 -24 -22 -22 -22 -21 -20 -20 -21 -21 -21 -20 -20 -19 -19 -18 -18 -18 -17 -17 -17 -17 -16 -17 -17 -18 -18 -18 -18 -19 -19 -20 -20 -20 -20 -21 -21 -21 -20 -20
-24 -25 -25 -26 -25 -23 -22 -22 -21 -20 -19 -20 -21 -22 -22 -20 -20 -20 -19 -18 -18 -17 -17 -17 -17 -16 -16 -17 -17 -17 -18 -18 -18 -17 -17 -17 -18 -18 -20 -19 -20 -19 -20 -19
-24 -25 -24 -24 -22 -22 -22 -21 -21 -20 -21 -20 -21 -21 -21 -21 -20 -20 -19 -19 -18 -18 -18 -18 -17 -16 -16 -17 -17 -17 -18 -17 -16 -17 -16 -16 -17 -16 -17 -18 -18 -19 -20 -19
-24 -24 -24 -23 -22 -22 -22 -21 -21 -21 -21 -20 -20 -21 -21 -20 -20 -20 -19 -19 -18 -18 -18 -17 -16 -16 -17 -17 -17 -17 -17 -16 -15 -16 -16 -16 -16 -16 -16 -18 -17 -17 -17 -17
-23 -23 -23 -22 -22 -22 -21 -21 -21 -21 -21 -20 -21 -20 -20 -20 -20 -20 -19 -19 -19 -18 -18 -17 -17 -16 -17 -17 -17 -16 -16 -16 -16 -16 -16 -15 -15 -15 -16 -16 -16 -16 -16 -15
-22 -22 -21 -21 -21 -21 -21 -21 -21 -20 -21 -21 -21 -21 -20 -20 -20 -19 -19 -19 -19 -18 -18 -17 -16 -17 -17 -16 -17 -16 -16 -16 -16 -16 -16 -15 -15 -15 -15 -15 -15 -15 -14 -15
-21 -21 -21 -21 -21 -21 -21 -21 -21 -20 -20 -21 -20 -20 -20 -20 -19 -19 -19 -19 -18 -18 -17 -17 -16 -16 -16 -16 -16 -16 -16 -16 -15 -15 -16 -15 -15 -15 -15 -14 -15 -15 -15 -15
-20 -20 -20 -20 -20 -21 -21 -20 -21 -20 -20 -20 -20 -20 -20 -20 -19 -19 -19 -18 -18 -18 -17 -17 -17 -16 -15 -16 -15 -16 -16 -16 -16 -15 -15 -15 -15 -15 -15 -15 -15 -16 -16 -16
-20 -20 -21 -20 -21 -21 -21 -21 -21 -20 -21 -21 -20 -20 -20 -20 -20 -19 -19 -18 -18 -18 -17 -17 -16 -16 -16 -16 -15 -15 -16 -15 -15 -15 -15 -15 -15 -15 -15 -15 -15 -15 -15 -16
-20 -20 -21 -21 -21 -21 -20 -20 -21 -21 -20 -20 -20 -21 -20 -20 -20 -19 -19 -19 -18 -18 -17 -17 -17 -16 -16 -16 -16 -15 -16 -16 -15 -15 -15 -15 -14 -15 -15 -15 -15 -16 -15 -15
-20 -20 -20 -21 -20 -20 -20 -21 -21 -20 -20 -20 -20 -20 -20 -20 -19 -19 -19 -18 -18 -17 -17 -17 -17 -16 -17 -16 -16 -16 -16 -16 -15 -16 -16 -16 -16 -15 -15 -16 -16 -16 -16 -16
-21 -20 -20 -21 -20 -21 -20 -20 -20 -20 -21 -20 -20 -20 -20 -19 -19 -19 -19 -18 -18 -17 -17 -17 -17 -17 -17 -17 -16 -17 -17 -17 -16 -16 -16 -16 -16 -15 -16 -16 -16 -16 -16 -16
-21 -20 -20 -21 -21 -20 -21 -21 -20 -21 -20 -20 -20 -20 -20 -19 -19 -19 -18 -18 -17 -17 -17 -17 -17 -17 -17 -17 -17 -17 -17 -17 -16 -16 -16 -16 -16 -16 -16 -16 -16 -16 -16 -16
-22 -20 -20 -20 -21 -21 -20 -20 -20 -20 -20 -20 -20 -20 -19 -19 -19 -18 -18 -18 -17 -17 -17 -17 -17 -17 -17 -16 -17 -17 -17 -16 -16 -16 -17 -17 -16 -17 -17 -17 -17 -17 -17 -16
-22 -21 -20 -20 -21 -21 -20 -20 -21 -21 -21 -21 -20 -20 -19 -19 -19 -19 -18 -17 -17 -17 -16 -16 -17 -17 -17 -17 -17 -18 -17 -16 -16 -16 -16 -17 -17 -16 -16 -16 -17 -17 -17 -17
-23 -22 -20 -20 -21 -21 -20 -21 -21 -21 -20 -21 -21 -20 -20 -19 -19 -18 -18 -17 -17 -17 -17 -17 -17 -17 -17 -17 -17 -17 -16 -16 -16 -16 -16 -16 -16 -17 -17 -17 -17 -16 -16 -16
-23 -22 -21 -20 -21 -21 -21 -21 -21 -20 -20 -20 -20 -20 -20 -20 -19 -19 -18 -17 -17 -17 -17 -17 -17 -17 -17 -17 -17 -16 -16 -16 -17 -16 -16 -16 -16 -16 -16 -17 -16 -16 -16 -16
-23 -22 -21 -20 -21 -22 -22 -21 -21 -20 -20 -20 -20 -20 -20 -20 -19 -19 -18 -18 -17 -17 -17 -17 -17 -17 -17 -17 -17 -17 -16 -16 -16 -16 -16 -16 -16 -17 -17 -16 -16 -17 -16 -16
-23 -23 -21 -21 -21 -22 -22 -21 -21 -20 -20 -20 -20 -20 -20 -20 -19 -19 -19 -18 -18 -17 -17 -17 -17 -16 -16 -16 -16 -16 -16 -16 -16 -16 -16 -16 -16 -17 -17 -17 -17 -17 -17 -17
-23 -23 -22 -23 -22 -22 -22 -21 -21 -20 -20 -20 -20 -20 -20 -20 -19 -19 -19 -19 -18 -18 -18 -17 -17 -16 -16 -16 -16 -16 -16 -16 -16 -16 -16 -16 -17 -17 -17 -17 -17 -17 -17 -17
-23 -23 -23 -22 -22 -22 -22 -21 -20 -20 -20 -21 -21 -20 -20 -20 -20 -20 -19 -19 -19 -18 -18 -18 -17 -17 -16 -16 -16 -16 -16 -16 -16 -17 -17 -18 -17 -17 -17 -17 -17 -17 -17 -17
-23 -23 -23 -23 -22 -22 -21 -21 -20 -20 -21 -21 -21 -21 -20 -20 -20 -20 -20 -19 -19 -19 -19 -18 -17 -17 -17 -17 -17 -17 -17 -17 -17 -17 -17 -18 -18 -18 -17 -17 -17 -17 -17 -17
-22 -23 -23 -23 -22 -22 -21 -21 -20 -20 -20 -21 -21 -21 -20 -20 -20 -20 -19 -19 -18 -19 -19 -19 -19 -18 -17 -17 -17 -17 -17 -17 -17 -17 -18 -18 -18 -17 -17 -17 -18 -18 -17 -18
-22 -22 -22 -22 -23 -21 -21 -21 -20 -20 -21 -21 -21 -21 -21 -20 -19 -19 -19 -18 -18 -19 -19 -19 -19 -18 -18 -18 -18 -18 -17 -17 -17 -17 -17 -17 -17 -18 -18 -18 -18 -18 -18 -18
-21 -22 -22 -22 -22 -22 -21 -21 -21 -21 -21 -21 -21 -21 -21 -20 -19 -18 -19 -19 -20 -20 -19 -18 -18 -18 -18 -18 -18 -18 -18 -18 -18 -18 -18 -18 -18 -18 -18 -18 -18 -18 -18 -19
Height
5448 5448 5451 5454 5455 5455 5458 5468 5483 5492 5501 5512 5523 5533 5540 5547 5556 5564 5572 5578 5583 5589 5591 5594 5594 5593 5592 5593 5589 5587 5585 5579 5576 5572 5567 5563 5559 5556 5552 5548 5551 5550 5549 5549
5445 5445 5449 5453 5454 5458 5464 5475 5486 5497 5506 5515 5523 5531 5538 5544 5552 5561 5568 5573 5580 5583 5587 5588 5586 5587 5588 5587 5585 5581 5579 5573 5566 5563 5560 5554 5550 5548 5544 5541 5540 5541 5541 5541
5444 5444 5446 5454 5457 5461 5470 5481 5489 5496 5507 5513 5525 5530 5535 5543 5550 5558 5565 5571 5575 5580 5582 5582 5583 5583 5585 5584 5583 5577 5573 5569 5563 5556 5550 5546 5540 5540 5538 5534 5531 5537 5533 5545
5447 5447 5448 5455 5459 5470 5479 5487 5494 5502 5507 5516 5525 5529 5535 5542 5550 5557 5563 5568 5573 5575 5577 5577 5577 5579 5582 5582 5579 5575 5569 5565 5558 5552 5545 5541 5537 5534 5533 5532 5533 5533 5541 5543
5453 5454 5456 5461 5468 5476 5483 5490 5497 5501 5510 5518 5524 5530 5537 5543 5549 5556 5561 5566 5568 5571 5573 5572 5574 5577 5579 5580 5577 5572 5568 5562 5557 5552 5548 5545 5541 5537 5537 5537 5537 5537 5539 5542
5460 5461 5463 5467 5473 5480 5486 5494 5500 5506 5513 5519 5525 5533 5538 5543 5549 5555 5558 5562 5565 5567 5568 5569 5572 5576 5578 5577 5574 5572 5567 5562 5558 5555 5550 5547 5544 5542 5542 5542 5543 5542 5545 5547
5465 5465 5467 5474 5478 5485 5491 5498 5504 5509 5515 5521 5527 5533 5538 5544 5548 5553 5556 5559 5561 5564 5565 5567 5570 5573 5574 5574 5573 5572 5568 5565 5561 5558 5555 5552 5547 5544 5544 5545 5544 5545 5548 5553
5468 5470 5475 5480 5486 5492 5496 5501 5507 5512 5518 5522 5526 5532 5537 5543 5547 5552 5554 5556 5558 5560 5562 5566 5569 5573 5574 5575 5573 5573 5571 5567 5565 5561 5559 5559 5555 5553 5551 5550 5554 5553 5555 5559
5472 5476 5481 5486 5491 5495 5500 5504 5509 5513 5518 5524 5527 5533 5538 5542 5547 5550 5552 5553 5554 5557 5560 5564 5567 5572 5574 5574 5575 5573 5572 5571 5569 5567 5566 5563 5563 5562 5563 5563 5564 5566 5569 5572
5478 5480 5484 5488 5493 5497 5502 5506 5511 5515 5519 5522 5528 5533 5537 5541 5544 5547 5550 5551 5553 5555 5558 5561 5564 5568 5573 5574 5574 5574 5574 5574 5573 5571 5570 5571 5570 5570 5571 5573 5576 5574 5577 5579
5477 5482 5486 5490 5495 5499 5503 5507 5511 5515 5519 5524 5528 5531 5534 5539 5543 5546 5549 5550 5551 5553 5556 5558 5560 5564 5568 5571 5572 5572 5575 5574 5574 5573 5573 5575 5575 5575 5576 5577 5579 5581 5583 5585
5470 5477 5483 5488 5492 5496 5501 5507 5511 5515 5519 5523 5526 5529 5533 5537 5541 5544 5546 5548 5548 5550 5552 5554 5555 5561 5564 5567 5570 5570 5573 5575 5576 5576 5575 5574 5575 5577 5578 5578 5579 5580 5582 5585
5461 5469 5478 5484 5488 5492 5499 5505 5510 5515 5518 5522 5524 5528 5532 5535 5538 5540 5543 5545 5545 5547 5549 5550 5552 5555 5558 5563 5566 5568 5569 5572 5573 5575 5576 5575 5575 5576 5576 5577 5579 5581 5582 5584
5455 5463 5473 5479 5485 5491 5498 5504 5509 5513 5517 5519 5523 5526 5530 5534 5536 5538 5539 5541 5543 5544 5546 5547 5549 5553 5556 5559 5561 5565 5568 5570 5571 5573 5574 5575 5576 5576 5578 5578 5579 5580 5581 5583
5450 5458 5468 5476 5482 5489 5496 5502 5507 5510 5515 5518 5521 5525 5529 5532 5534 5536 5538 5539 5540 5540 5542 5545 5549 5552 5555 5556 5558 5562 5563 5565 5568 5571 5573 5575 5576 5577 5578 5580 5580 5581 5582 5583
5445 5453 5464 5473 5480 5487 5493 5499 5504 5508 5513 5517 5520 5524 5528 5531 5532 5534 5535 5536 5537 5539 5542 5545 5549 5551 5553 5554 5558 5559 5560 5563 5565 5568 5571 5573 5574 5575 5577 5578 5579 5580 5581 5582
5436 5445 5458 5469 5477 5484 5492 5498 5504 5507 5510 5515 5519 5522 5527 5529 5531 5532 5533 5534 5536 5537 5540 5543 5546 5548 5549 5554 5556 5556 5557 5560 5562 5565 5568 5570 5572 5573 5575 5576 5577 5578 5579 5580
5428 5437 5451 5464 5474 5482 5489 5495 5499 5503 5507 5512 5517 5522 5526 5528 5529 5530 5532 5533 5534 5536 5537 5540 5543 5545 5547 5551 5549 5551 5555 5558 5560 5562 5564 5566 5569 5570 5571 5573 5574 5575 5576 5577
5423 5430 5445 5460 5471 5478 5486 5492 5497 5501 5506 5509 5515 5519 5524 5526 5528 5529 5531 5531 5533 5535 5536 5538 5541 5542 5544 5545 5547 5549 5553 5556 5558 5560 5561 5562 5564 5564 5567 5569 5571 5572 5574 5575
5422 5429 5441 5455 5469 5477 5483 5489 5494 5499 5503 5508 5513 5517 5521 5525 5526 5528 5530 5530 5531 5532 5534 5535 5538 5540 5541 5543 5545 5547 5550 5553 5555 5556 5557 5559 5561 5564 5565 5567 5569 5570 5572 5574
5422 5427 5440 5457 5468 5475 5481 5486 5492 5497 5503 5507 5510 5513 5518 5522 5524 5526 5528 5528 5529 5531 5533 5534 5536 5538 5541 5542 5543 5546 5548 5551 5552 5554 5555 5557 5560 5562 5563 5565 5567 5569 5570 5571
5428 5433 5444 5457 5466 5473 5478 5483 5489 5495 5501 5505 5507 5509 5513 5517 5521 5524 5526 5526 5528 5529 5530 5532 5533 5536 5537 5539 5541 5543 5545 5547 5549 5551 5554 5556 5558 5560 5562 5563 5565 5566 5568 5568
5439 5443 5451 5457 5463 5469 5476 5481 5486 5493 5498 5500 5501 5505 5509 5514 5518 5521 5523 5524 5526 5526 5528 5529 5530 5533 5535 5537 5539 5540 5542 5545 5546 5548 5550 5553 5555 5557 5559 5560 5561 5562 5563 5562
5448 5450 5453 5459 5461 5467 5474 5479 5484 5491 5496 5497 5501 5502 5506 5509 5512 5515 5517 5520 5522 5525 5525 5525 5526 5530 5532 5534 5535 5537 5539 5541 5543 5545 5547 5549 5551 5553 5554 5555 5556 5556 5556 5556
5451 5453 5454 5457 5460 5465 5471 5476 5482 5487 5491 5494 5497 5499 5502 5505 5507 5511 5513 5516 5519 5521 5522 5522 5523 5524 5527 5529 5531 5534 5536 5537 5539 5541 5543 5544 5546 5548 5549 5549 5549 5549 5549 5549
5451 5450 5454 5457 5460 5464 5468 5473 5477 5481 5485 5488 5491 5494 5496 5499 5501 5505 5508 5512 5516 5517 5517 5517 5519 5520 5522 5524 5526 5528 5530 5533 5535 5536 5538 5539 5540 5541 5542 5543 5543 5543 5543 5543
5451 5447 5448 5451 5455 5459 5463 5467 5470 5474 5478 5482 5485 5489 5492 5493 5495 5500 5502 5508 5510 5509 5510 5511 5513 5516 5518 5520 5522 5523 5525 5527 5528 5530 5531 5533 5534 5535 5535 5536 5536 5536 5536 5535
Wind_Speed
24 13 11 5 11 4 18 64 34 40 29 39 33 28 28 33 37 38 35 33 30 22 25 23 23 23 23 16 21 26 32 42 36 34 34 36 35 39 42 41 36 36 37 41
18 7 7 9 9 9 30 36 29 35 40 34 28 28 25 35 36 36 35 32 24 25 21 21 24 25 22 19 25 30 31 38 36 30 32 32 34 31 29 41 40 39 36 21
13 8 14 10 11 14 50 32 32 42 39 41 25 22 28 32 31 31 30 25 25 19 18 22 22 20 17 20 23 29 26 24 28 33 34 32 35 31 22 22 29 18 21 11
8 3 13 10 14 42 36 32 36 44 45 31 21 22 24 25 24 25 24 24 19 16 17 19 16 15 12 18 15 15 20 18 21 14 13 16 17 12 11 3 3 13 9 19
4 6 14 20 45 43 26 28 37 37 36 25 30 21 21 20 20 21 23 17 17 17 10 14 9 10 9 18 14 13 9 16 14 12 16 20 14 9 9 6 8 7 6 25
7 9 13 25 34 31 24 26 21 19 27 22 26 19 19 20 20 16 17 17 17 11 10 8 11 8 10 12 11 6 10 13 14 18 16 19 15 2 9 8 14 13 12 15
4 9 16 27 36 26 24 15 16 20 13 21 21 24 15 16 17 14 14 17 15 13 9 10 12 8 10 8 8 11 14 13 15 19 18 25 20 14 3 5 9 15 25 35
3 11 31 34 38 32 25 18 14 17 22 14 21 20 11 14 11 10 10 12 13 14 10 10 11 11 6 5 7 6 9 11 13 16 18 20 20 23 22 17 24 35 40 36
7 32 40 41 36 25 20 23 21 18 17 17 20 17 14 16 12 11 9 14 12 9 9 7 9 10 8 7 1 2 5 8 10 12 15 16 18 20 21 23 23 24 25 24
24 41 39 31 31 21 18 20 25 18 19 24 22 14 18 17 16 5 7 13 12 12 10 7 10 12 14 14 9 3 1 1 5 7 11 10 10 13 13 13 19 19 19 19
29 43 40 33 31 32 24 25 24 22 20 19 19 17 18 17 15 9 11 12 13 14 14 11 12 13 15 14 15 10 4 2 1 3 6 7 7 6 4 6 10 11 14 12
36 40 34 32 35 33 32 28 26 23 15 20 22 16 18 16 15 12 12 14 14 10 11 11 13 16 15 18 20 16 11 9 7 3 4 4 5 3 4 6 7 6 8 11
36 38 39 33 33 35 33 32 25 19 16 21 18 17 17 17 14 14 13 12 8 13 10 12 15 17 16 20 21 21 16 16 14 11 9 7 4 2 2 1 2 5 6 7
31 44 42 32 31 35 34 31 27 22 15 17 18 18 16 16 13 12 13 14 13 11 12 15 18 19 19 17 17 19 18 18 17 13 10 10 6 5 5 5 6 4 3 5
25 43 42 37 33 35 34 28 24 19 14 17 20 19 16 14 11 10 12 12 13 10 10 14 17 19 20 17 16 15 21 21 18 14 13 12 7 5 6 8 4 7 4 5
21 43 45 42 37 33 35 30 30 24 18 13 20 19 15 14 10 12 8 9 11 9 12 16 19 19 18 17 14 17 18 19 18 16 15 13 10 9 9 9 9 10 10 10
20 40 50 45 37 35 32 30 26 25 22 19 18 17 20 15 14 14 7 9 9 13 15 15 15 17 18 16 17 22 18 14 13 13 16 15 15 13 10 9 10 12 11 11
21 46 51 46 40 36 35 31 26 20 20 22 21 16 14 14 16 13 9 10 10 8 12 14 12 15 17 16 24 23 18 17 15 15 16 17 18 21 20 16 12 11 10 12
19 44 52 49 42 39 36 33 24 17 19 24 21 20 18 15 15 12 9 9 9 11 11 14 14 13 13 19 21 22 18 17 19 17 16 16 12 10 13 14 12 14 12 8
14 41 56 52 44 33 34 35 29 24 19 14 22 22 22 18 17 11 9 9 8 9 12 16 14 10 12 11 13 15 16 15 14 11 11 14 13 10 12 15 13 11 9 9
9 41 53 49 45 36 36 34 29 28 21 15 20 27 24 20 19 15 10 9 11 9 9 10 11 11 14 8 13 17 15 14 13 10 10 14 14 14 13 13 14 17 16 15
11 40 49 46 42 38 39 36 31 28 18 14 22 30 30 26 22 18 14 12 11 11 9 9 9 9 12 12 14 16 18 17 16 13 14 16 16 16 15 15 15 17 19 20
15 39 45 45 45 45 42 38 36 25 15 15 24 24 27 28 25 21 18 15 11 11 11 12 14 8 7 9 10 11 13 15 17 19 19 17 16 17 17 17 18 19 21 24
17 39 44 43 43 44 42 39 33 28 24 20 16 20 21 27 27 24 22 20 15 11 10 15 16 14 12 10 9 12 13 14 17 21 24 21 21 18 19 20 22 24 25 25
11 37 44 46 46 44 42 41 36 32 31 25 21 18 19 25 29 30 28 24 20 14 16 17 15 16 18 18 17 15 14 15 16 18 19 20 22 24 25 24 25 24 25 25
12 25 40 46 46 43 44 42 38 36 36 34 28 24 21 22 25 24 26 24 20 18 21 24 23 22 21 17 15 16 18 18 18 20 21 22 23 24 24 23 24 25 25 24
22 10 31 42 49 49 48 45 41 41 37 38 34 32 26 25 24 21 19 14 18 23 28 30 25 23 24 23 21 19 19 19 20 22 24 25 25 25 25 25 25 25 24 25
Wind_Direction
322 289 290 164 77 217 212 190 175 174 184 184 190 205 220 206 203 208 215 222 231 238 246 260 271 251 260 277 300 300 296 292 299 293 282 280 277 277 267 260 265 267 272 247
323 263 177 191 105 213 168 157 165 177 182 185 196 208 212 200 201 207 212 220 227 234 251 260 255 244 258 285 296 299 299 301 306 310 304 301 296 297 292 264 262 261 269 235
328 252 173 132 172 163 154 156 171 167 175 196 199 200 190 195 201 207 212 219 228 239 249 252 247 252 270 291 300 301 295 309 316 320 323 309 298 287 294 276 265 280 222 212
329 205 167 142 196 151 143 164 169 175 187 186 177 174 186 191 199 207 213 220 231 241 246 251 253 257 273 296 304 310 308 341 353 353 342 334 326 310 267 128 213 178 174 185
71 154 160 163 168 157 139 144 165 189 190 188 191 189 186 185 199 208 218 221 227 228 249 257 261 258 266 286 308 328 345 19 15 359 7 359 16 75 52 106 162 146 210 182
121 148 158 185 168 144 145 152 149 173 186 199 187 175 187 196 204 218 219 224 232 232 249 248 238 240 262 267 346 16 45 41 37 25 18 13 6 54 108 138 145 162 151 156
93 210 201 183 154 143 140 144 176 168 177 187 176 174 185 202 201 213 223 234 232 235 250 236 236 231 238 325 348 57 47 47 41 37 31 52 52 60 70 19 114 113 112 128
121 197 184 169 171 169 165 169 178 182 174 197 197 191 194 191 184 215 238 241 243 245 242 227 229 227 239 286 357 59 43 50 40 40 39 66 77 71 80 95 124 125 127 131
217 173 170 174 181 172 188 199 193 198 193 181 190 193 210 179 182 202 249 268 242 227 212 230 221 208 214 219 226 52 49 68 62 59 49 58 64 85 87 121 114 121 114 116
191 177 180 185 184 195 202 194 205 221 209 207 192 201 201 189 211 231 256 266 249 224 251 267 234 211 211 198 185 216 258 77 87 77 85 73 68 93 94 110 120 120 125 135
201 195 201 199 199 204 200 197 197 193 207 203 204 233 192 201 216 217 261 266 242 242 261 275 235 215 214 198 193 215 209 192 149 97 90 93 113 117 133 129 139 147 152 155
210 206 204 205 206 207 214 215 202 201 216 195 217 203 196 211 209 248 250 263 232 257 275 266 224 202 210 211 207 204 219 227 214 193 174 133 115 140 162 163 166 170 195 199
213 205 200 198 208 207 198 196 199 194 196 220 221 195 202 220 220 237 252 249 256 263 261 246 211 205 214 211 211 213 218 221 221 213 209 204 186 191 244 255 196 188 190 205
205 201 195 190 187 182 193 200 195 210 221 224 226 210 209 222 233 245 264 270 258 266 260 222 203 207 213 217 217 215 215 219 220 217 214 212 191 165 165 197 222 203 207 211
210 204 199 186 181 190 193 194 196 200 216 214 213 215 219 224 243 255 275 252 254 257 232 192 191 202 213 214 217 215 217 223 225 223 222 222 229 206 195 219 207 208 208 211
215 205 200 192 185 187 194 208 206 205 215 226 211 216 224 227 243 254 278 259 226 230 202 189 188 193 208 217 218 228 228 230 233 227 220 224 219 211 210 228 232 239 241 241
210 199 199 198 189 192 203 207 207 215 229 229 217 221 230 234 248 263 247 239 228 228 211 200 205 216 221 214 210 222 224 227 236 233 226 227 226 227 221 232 257 260 248 244
207 190 197 197 189 193 193 193 203 214 219 209 206 216 225 233 247 261 239 219 215 207 205 207 224 230 230 212 209 223 226 220 229 239 234 243 241 250 249 247 251 237 240 237
201 186 188 193 187 193 194 198 200 207 217 217 202 209 220 237 248 259 230 227 219 229 236 232 230 235 224 216 226 230 225 222 235 246 244 248 249 218 214 230 236 218 196 205
202 183 183 186 185 194 200 201 206 213 222 225 210 214 220 231 244 243 248 221 224 229 237 232 234 235 213 196 212 202 202 215 222 253 240 223 223 217 230 220 214 203 221 234
208 184 178 181 187 197 205 210 215 220 228 229 205 210 217 226 236 239 243 235 222 224 229 223 221 230 211 225 215 216 222 220 234 249 228 216 217 219 220 220 223 227 236 248
188 179 171 178 185 191 205 211 218 219 222 214 207 206 212 218 230 237 238 240 233 231 232 231 230 226 228 225 220 212 212 220 227 228 211 211 213 221 228 234 240 250 259 267
184 179 172 178 187 194 206 214 219 217 202 193 189 200 217 220 227 229 228 236 237 235 234 241 241 227 218 218 215 220 222 226 227 218 210 214 222 233 241 247 254 262 270 275
194 188 188 187 197 202 208 216 222 218 213 224 219 224 224 218 218 220 225 231 236 235 230 238 243 233 222 223 225 223 221 227 233 230 224 225 227 236 249 256 265 271 274 277
222 203 205 202 207 210 214 218 220 223 219 226 224 217 223 224 226 229 232 231 234 229 234 239 238 241 240 235 236 233 231 231 232 236 240 242 245 255 263 269 271 273 275 277
333 225 219 213 215 217 217 221 223 225 227 224 230 225 221 221 229 233 235 238 240 231 236 242 241 239 242 243 237 234 233 234 238 240 244 248 254 261 266 270 271 274 276 276
353 285 226 223 221 223 224 226 230 232 233 232 237 228 226 223 225 226 229 230 239 239 240 245 247 248 248 247 247 244 242 241 241 244 247 251 254 255 260 263 267 270 270 269